St. Charles, IL

6:59 PM CDT on May 25, 2017 (GMT -0500)
Saint Charles County Smartt

Weather History for KSET - April, 2013

Change the Weather History Date:

Saturday, April 6, 2013

  Actual Average (KSTL) Record (KSTL)
Temperature  
Mean Temperature 60 °F -  
Max Temperature 75 °F 63 °F 87 °F (1972)
Min Temperature 48 °F 41 °F 23 °F (1982)
Degree Days  
Heating Degree Days 4    
Growing Degree Days 10 (Base 50)    
Moisture  
Dew Point 38 °F    
Average Humidity 42    
Maximum Humidity 67    
Minimum Humidity 23    
Precipitation  
Precipitation 0.00 in - - ()
Sea Level Pressure  
Sea Level Pressure 29.86 in    
Wind  
Wind Speed 12 mph (South)    
Max Wind Speed 29 mph    
Max Gust Speed 37 mph    
Visibility 10 miles    
Events Rain    
Averages and records for this station are not official NWS values.
T = Trace of Precipitation, MM = Missing Value Source: NWS Daily Summary

Daily Weather History Graph

Daily Weather History Graph

Search for Another Location

Airport or City:

Trip Planner

Search our weather history database for the weather conditions in past years. The results will help you decide how hot, cold, wet, or windy it might be!

Date:

Astronomy

Apr. 06, 2013 Rise Set
Actual Time 6:38 AM CDT 7:30 PM CDT
Civil Twilight 6:11 AM CDT 7:57 PM CDT
Nautical Twilight 5:39 AM CDT 8:29 PM CDT
Astronomical Twilight 5:05 AM CDT 9:03 PM CDT
Moon 4:20 AM CDT (4/6) 4:00 PM CDT (4/6)
Length of Visible Light 13h 46m
Length of Day
12h 52m
Waning Crescent, 15% of the Moon is Illuminated
Apr 6
Waning Crescent
Apr 10
New
Apr 18
First Quarter
Apr 25
Full
May 2
Last Quarter

Hourly Weather History & Observations

Time (CDT) Temp. Dew Point Humidity Pressure Visibility Wind Dir Wind Speed Gust Speed Precip Events Conditions
12:54 AM 52.0 °F 37.9 °F 59% 30.03 in 10.0 mi ESE 4.6 mph - N/A   Clear
1:54 AM 51.1 °F 37.9 °F 61% 30.02 in 10.0 mi ESE 6.9 mph - N/A   Clear
2:54 AM 54.0 °F 35.1 °F 49% 29.99 in 10.0 mi SE 13.8 mph - N/A   Clear
3:54 AM 52.0 °F 36.0 °F 54% 29.98 in 10.0 mi SE 9.2 mph - N/A   Clear
4:54 AM 50.0 °F 37.0 °F 61% 29.98 in 10.0 mi SE 8.1 mph - N/A   Clear
5:54 AM 48.0 °F 37.0 °F 66% 29.97 in 10.0 mi SSE 8.1 mph - N/A   Clear
6:54 AM 48.9 °F 37.0 °F 64% 29.97 in 10.0 mi SSE 8.1 mph - N/A   Clear
7:54 AM 54.0 °F 39.0 °F 57% 29.98 in 10.0 mi SE 8.1 mph - N/A   Clear
8:54 AM 59.0 °F 37.9 °F 46% 29.97 in 10.0 mi South 11.5 mph - N/A   Clear
9:54 AM 64.0 °F 39.0 °F 40% 29.94 in 10.0 mi SSE 16.1 mph 21.9 mph N/A   Clear
10:54 AM 66.9 °F 39.0 °F 36% 29.90 in 10.0 mi South 23.0 mph 27.6 mph N/A   Clear
11:54 AM 71.1 °F 36.0 °F 28% 29.88 in 10.0 mi South 20.7 mph 28.8 mph N/A   Clear
12:54 PM 72.0 °F 34.0 °F 25% 29.84 in 10.0 mi South 24.2 mph 36.8 mph N/A   Clear
1:03 PM 71.6 °F 33.8 °F 25% 29.84 in 10.0 mi South 28.8 mph 36.8 mph N/A   Partly Cloudy
1:54 PM 73.9 °F 34.0 °F 23% 29.79 in 10.0 mi South 23.0 mph 34.5 mph N/A   Clear
2:54 PM 72.0 °F 35.1 °F 26% 29.75 in 10.0 mi South 25.3 mph 33.4 mph N/A   Clear
3:54 PM 73.0 °F 35.1 °F 25% 29.73 in 10.0 mi South 20.7 mph 32.2 mph N/A   Clear
4:54 PM 73.9 °F 36.0 °F 25% 29.70 in 10.0 mi South 21.9 mph 29.9 mph N/A   Partly Cloudy
5:54 PM 72.0 °F 37.0 °F 28% 29.70 in 10.0 mi South 15.0 mph - N/A   Partly Cloudy
6:54 PM 71.1 °F 37.9 °F 30% 29.71 in 10.0 mi SSW 15.0 mph - N/A   Clear
7:54 PM 66.0 °F 39.9 °F 38% 29.73 in 10.0 mi South 9.2 mph - N/A   Mostly Cloudy
8:54 PM 66.9 °F 41.0 °F 39% 29.74 in 10.0 mi South 12.7 mph - N/A   Overcast
9:54 PM 64.0 °F 41.0 °F 43% 29.75 in 10.0 mi South 13.8 mph - N/A   Partly Cloudy
10:54 PM 63.0 °F 42.1 °F 46% 29.76 in 10.0 mi SSW 8.1 mph - N/A   Mostly Cloudy
11:54 PM 59.0 °F 48.0 °F 67% 29.78 in 10.0 mi Calm Calm - 0.00 in Rain Light Rain